Location: São Paulo
(23.5507°S, 46.6334°W)
Time: 08:17:24
(UTC-03:00)

Vanguard 2 Rocket - Pass Details

Date: 16 February 2026
Orbit: 553 x 3286 km, 32.9° (Epoch: 7 March)

Event Time Altitude Azimuth Distance (km) Brightness Sun altitude
Exits shadow 03:22:49 36° 223° (SW) 1,961 8.4 -32.8°
Maximum altitude 03:25:41 47° 177° (S) 1,901 8.6 -32.3°
Drops below altitude 10° 03:37:46 10° 106° (ESE) 4,908 11.5 -29.9°
Sets 03:42:52 0° 100° (E) 6,348 12.2 -28.9°
